User: anonymous   Login
Location: Seattle
(47.6064°N, 122.3308°W)
Time: 03:56:21
(UTC-08:00)
Language:

N. Korean satellite - Orbit

View from above orbital plane
View from above orbital plane
View from above satellite
View from above satellite

Ground track
Ground track

The orbit data is extracted from the following two-line orbital elements,

1 39026U 12072A   20338.50627156  .00004504  00000-0  15835-3 0  9998
2 39026  97.2330 330.4460 0036845   5.5424 354.6217 15.29211670443072
Epoch (UTC): 03 December 2020 12:09:01
Eccentricity: 0.0036845
inclination: 97.2330°
perigee height: 453 km
apogee height: 503 km
right ascension of ascending node: 330.4460°
argument of perigee: 5.5424°
revolutions per day: 15.29211670
mean anomaly at epoch: 354.6217°
orbit number at epoch: 44307

The dashed part of the orbit path shows where the satellite is in the earth's shadow,  

DLR